• In Hungary
  • List of Countries
  • For 7 days
  • Water Temperature
  • Satellite Maps
  • Weather Map
  • News
  • Weather Widgets
  • user-avatar
    Login

    Hourly Weather Czekanka

    Today, 14 December, Thursday

    Time Temperature Precipitation Wind Pressure Humidity
    00:00 -2°C° 0 mm 5 mps 726 mmHg 64%
    01:00 -2°C° 0 mm 5 mps 724 mmHg 60%
    02:00 -1°C° 0 mm 5 mps 724 mmHg 59%
    03:00 -1°C° 0 mm 5 mps 723 mmHg 59%
    04:00 -1°C° 0 mm 5 mps 722 mmHg 58%
    05:00 -1°C° 0 mm 5 mps 721 mmHg 60%
    06:00 -1°C° 0 mm 5 mps 721 mmHg 62%
    07:00 -1°C° 0 mm 5 mps 720 mmHg 63%
    08:00 -1°C° 0 mm 6 mps 720 mmHg 63%
    09:00 0°C° 0 mm 7 mps 720 mmHg 63%
    10:00 +1°C° 0 mm 8 mps 720 mmHg 63%
    11:00 +1°C° 0 mm 9 mps 720 mmHg 62%
    12:00 +2°C° 0 mm 9 mps 720 mmHg 61%
    13:00 +4°C° 0 mm 7 mps 719 mmHg 59%
    14:00 +3°C° 0 mm 7 mps 720 mmHg 59%
    15:00 +2°C° 0 mm 7 mps 721 mmHg 58%
    16:00 +2°C° 0 mm 7 mps 721 mmHg 58%
    17:00 +1°C° 0 mm 6 mps 722 mmHg 60%
    18:00 +1°C° 0 mm 6 mps 722 mmHg 62%
    19:00 0°C° 0 mm 5 mps 722 mmHg 64%
    20:00 0°C° 0 mm 5 mps 722 mmHg 66%
    21:00 0°C° 0 mm 5 mps 722 mmHg 68%
    22:00 0°C° 0 mm 5 mps 722 mmHg 70%
    23:00 -1°C° 0 mm 5 mps 722 mmHg 71%

    Tomorrow, 15 December, Friday

    Time Temperature Precipitation Wind Pressure Humidity
    00:00 -1°C° 0 mm 5 mps 722 mmHg 73%
    01:00 -1°C° 0 mm 4 mps 722 mmHg 75%
    02:00 -1°C° 0 mm 4 mps 721 mmHg 76%
    03:00 0°C° 0 mm 3 mps 721 mmHg 77%
    04:00 0°C° 0 mm 3 mps 721 mmHg 77%
    05:00 0°C° 0.2 mm 3 mps 720 mmHg 77%
    06:00 0°C° 0.2 mm 3 mps 720 mmHg 77%
    07:00 0°C° 0.2 mm 3 mps 719 mmHg 78%
    08:00 +2°C° 0.5 mm 2 mps 719 mmHg 79%
    09:00 +2°C° 0.5 mm 2 mps 719 mmHg 80%
    10:00 +2°C° 0.5 mm 2 mps 719 mmHg 82%
    11:00 +2°C° 0.3 mm 3 mps 719 mmHg 82%
    12:00 +2°C° 0.3 mm 3 mps 719 mmHg 83%
    13:00 +1°C° 0.3 mm 4 mps 719 mmHg 84%
    14:00 +1°C° 0.1 mm 5 mps 719 mmHg 81%
    15:00 +1°C° 0.1 mm 5 mps 720 mmHg 79%
    16:00 +1°C° 0.1 mm 5 mps 720 mmHg 77%
    17:00 +1°C° 0 mm 5 mps 721 mmHg 76%
    18:00 0°C° 0 mm 5 mps 721 mmHg 76%
    19:00 0°C° 0 mm 5 mps 722 mmHg 75%
    20:00 -1°C° 0 mm 5 mps 722 mmHg 77%
    21:00 -1°C° 0 mm 4 mps 722 mmHg 79%
    22:00 -2°C° 0 mm 4 mps 723 mmHg 81%
    23:00 -1°C° 0 mm 3 mps 723 mmHg 82%

    Day after tomorrow, 16 December, Saturday

    Time Temperature Precipitation Wind Pressure Humidity
    00:00 -1°C° 0 mm 3 mps 723 mmHg 84%
    01:00 -1°C° 0 mm 2 mps 724 mmHg 85%
    02:00 -1°C° 0 mm 2 mps 723 mmHg 85%
    03:00 +1°C° 0 mm 1 mps 723 mmHg 85%
    04:00 0°C° 0 mm 1 mps 723 mmHg 86%
    05:00 +1°C° 0 mm 1 mps 723 mmHg 86%
    06:00 +1°C° 0 mm 1 mps 723 mmHg 85%
    07:00 +1°C° 0 mm 1 mps 724 mmHg 85%
    08:00 +1°C° 0 mm 1 mps 724 mmHg 84%
    09:00 +1°C° 0 mm 2 mps 724 mmHg 82%
    10:00 +1°C° 0 mm 2 mps 725 mmHg 81%
    11:00 +2°C° 0 mm 2 mps 725 mmHg 80%
    12:00 +2°C° 0 mm 2 mps 725 mmHg 79%
    13:00 +1°C° 0 mm 3 mps 726 mmHg 78%
    14:00 +2°C° 0 mm 2 mps 726 mmHg 81%
    15:00 +1°C° 0 mm 2 mps 726 mmHg 85%
    16:00 -1°C° 0 mm 2 mps 727 mmHg 89%
    17:00 -1°C° 0 mm 2 mps 727 mmHg 89%
    18:00 -1°C° 0 mm 2 mps 728 mmHg 90%
    19:00 -1°C° 0 mm 2 mps 728 mmHg 90%
    20:00 -1°C° 0 mm 2 mps 729 mmHg 89%
    21:00 -1°C° 0 mm 2 mps 729 mmHg 88%
    22:00 -1°C° 0 mm 3 mps 730 mmHg 87%
    23:00 -1°C° 0 mm 3 mps 730 mmHg 86%

    17 December, Sunday

    Time Temperature Precipitation Wind Pressure Humidity
    00:00 -1°C° 0 mm 3 mps 730 mmHg 86%
    01:00 -1°C° 0 mm 3 mps 731 mmHg 85%
    02:00 -1°C° 0 mm 3 mps 731 mmHg 86%
    03:00 -1°C° 0 mm 3 mps 731 mmHg 86%
    04:00 -1°C° 0 mm 3 mps 731 mmHg 87%
    05:00 -1°C° 0 mm 3 mps 731 mmHg 86%
    06:00 -1°C° 0 mm 3 mps 732 mmHg 86%
    07:00 -1°C° 0 mm 3 mps 732 mmHg 85%
    08:00 -2°C° 0.1 mm 4 mps 733 mmHg 83%
    09:00 -2°C° 0.1 mm 4 mps 733 mmHg 81%
    10:00 -1°C° 0.1 mm 5 mps 733 mmHg 79%
    11:00 -1°C° 0.1 mm 5 mps 733 mmHg 76%
    12:00 -1°C° 0.1 mm 5 mps 734 mmHg 72%
    13:00 -1°C° 0.1 mm 5 mps 734 mmHg 69%
    14:00 -2°C° 0 mm 5 mps 734 mmHg 71%
    15:00 -2°C° 0 mm 4 mps 734 mmHg 73%
    16:00 -2°C° 0 mm 4 mps 735 mmHg 75%
    17:00 -3°C° 0 mm 4 mps 735 mmHg 77%
    18:00 -3°C° 0 mm 4 mps 735 mmHg 80%
    19:00 -3°C° 0 mm 4 mps 736 mmHg 82%
    20:00 -3°C° 0 mm 4 mps 736 mmHg 82%
    21:00 -3°C° 0 mm 4 mps 736 mmHg 83%
    22:00 -3°C° 0 mm 4 mps 737 mmHg 83%
    23:00 -3°C° 0 mm 4 mps 737 mmHg 83%

    18 December, Monday

    Time Temperature Precipitation Wind Pressure Humidity
    00:00 -3°C° 0 mm 4 mps 737 mmHg 83%
    01:00 -3°C° 0 mm 4 mps 737 mmHg 83%
    02:00 -3°C° 0 mm 4 mps 737 mmHg 83%
    03:00 -3°C° 0 mm 4 mps 737 mmHg 82%
    04:00 -3°C° 0 mm 4 mps 736 mmHg 82%
    05:00 -3°C° 0 mm 4 mps 736 mmHg 82%
    06:00 -2°C° 0 mm 3 mps 736 mmHg 82%
    07:00 -2°C° 0 mm 3 mps 736 mmHg 83%
    08:00 -2°C° 0 mm 3 mps 736 mmHg 82%
    09:00 -1°C° 0 mm 3 mps 736 mmHg 82%
    10:00 -1°C° 0 mm 3 mps 735 mmHg 81%
    11:00 -1°C° 0.1 mm 3 mps 735 mmHg 82%
    12:00 0°C° 0.1 mm 3 mps 734 mmHg 82%
    13:00 0°C° 0.1 mm 3 mps 734 mmHg 82%
    14:00 -1°C° 0.1 mm 3 mps 734 mmHg 84%
    15:00 -1°C° 0.1 mm 2 mps 734 mmHg 86%
    16:00 -1°C° 0.1 mm 2 mps 734 mmHg 88%
    17:00 +1°C° 0.2 mm 1 mps 734 mmHg 90%
    18:00 +1°C° 0.2 mm 1 mps 735 mmHg 91%
    19:00 +1°C° 0.2 mm 1 mps 735 mmHg 93%
    20:00 0°C° 0.1 mm 1 mps 736 mmHg 93%
    21:00 0°C° 0.1 mm 1 mps 736 mmHg 94%
    22:00 0°C° 0.1 mm 1 mps 737 mmHg 94%
    23:00 0°C° 0 mm 1 mps 738 mmHg 94%

    19 December, Tuesday

    Time Temperature Precipitation Wind Pressure Humidity
    00:00 -1°C° 0 mm 1 mps 738 mmHg 94%
    01:00 -3°C° 0 mm 2 mps 739 mmHg 94%
    02:00 -1°C° 0 mm 1 mps 739 mmHg 94%
    03:00 -1°C° 0 mm 1 mps 740 mmHg 93%
    04:00 -2°C° 0 mm 1 mps 740 mmHg 93%
    05:00 -2°C° 0 mm 1 mps 741 mmHg 92%
    06:00 -2°C° 0 mm 1 mps 741 mmHg 92%
    07:00 -2°C° 0 mm 1 mps 742 mmHg 91%
    08:00 -2°C° 0 mm 1 mps 743 mmHg 88%
    09:00 -1°C° 0 mm 1 mps 743 mmHg 85%
    10:00 -1°C° 0 mm 1 mps 744 mmHg 83%
    11:00 0°C° 0 mm 1 mps 744 mmHg 80%
    12:00 0°C° 0 mm 1 mps 744 mmHg 77%
    13:00 -2°C° 0 mm 2 mps 744 mmHg 74%
    14:00 -2°C° 0 mm 2 mps 744 mmHg 78%
    15:00 -3°C° 0 mm 2 mps 745 mmHg 81%
    16:00 -3°C° 0 mm 2 mps 745 mmHg 85%
    17:00 -3°C° 0 mm 2 mps 745 mmHg 86%
    18:00 -4°C° 0 mm 2 mps 746 mmHg 87%
    19:00 -4°C° 0 mm 2 mps 746 mmHg 88%
    20:00 -4°C° 0 mm 2 mps 746 mmHg 89%
    21:00 -4°C° 0 mm 2 mps 746 mmHg 89%
    22:00 -4°C° 0 mm 2 mps 747 mmHg 89%
    23:00 -4°C° 0 mm 2 mps 747 mmHg 90%
    Show more